Location: Bednik
(45.3500°N, 16.3833°E)
Time: 07:38:44
(UTC+00:00)

Landsat 7 - Pass Details

Date: 08 August 2020
Orbit: 701 x 703 km, 98.1° (Epoch: 27 September)

Event Time Altitude Azimuth Distance (km) Brightness Sun altitude
Exits shadow 19:30:48 18° 139° (SE) 1,693 5.2 -12.7°
Maximum altitude 19:34:07 49° 71° (ENE) 909 4.2 -13.1°
Drops below altitude 10° 19:38:42 10° 357° (N) 2,180 7.0 -13.7°
Sets 19:41:01 0° 352° (N) 3,103 8.0 -14.1°
